Location: Unspecified
(0.0000°N, 0.0000°E)
Time: 03:08:53
(UTC+00:00)

Vanguard 2 - Pass Details

Date: 16 December 2017
Orbit: 553 x 2939 km, 32.9° (Epoch: 21 June)

Event Time Altitude Azimuth Distance (km) Brightness Sun altitude
Exits shadow 00:30:35 12° 146° (SSE) 3,840 11.3 -65.2°
Drops below altitude 10° 00:31:10 10° 145° (SE) 4,019 11.4 -65.1°
Sets 00:35:49 0° 137° (SE) 5,453 12.2 -64.7°
